contact:dominique.lefevre@mio.osupytheas.fr, maurice.libes@osupytheas.fr, didier.mallarino@osupytheas.fr
Project:EMSO http://www.emso-fr.org/EMSO-France
Depth: 2436.0 m
Title:EMSO Ligure Ouest : Data MII capteur CSTAR
DateTime,Latitude,Longitude,Instrument_Serial,Reference_Counts,Signal_Counts,Corrected_Signal_raw_counts,Calculated_Beam_c_inverse_meters,Internal_thermistor_counts
DateTime,Latitude,Longitude,Instrument_Serial,Reference_Counts,Signal_Counts,Corrected_Signal_raw_counts,Calculated_Beam_c_inverse_meters,Internal_thermistor_counts
2019-07-20T00:00:25,42.805,6.029,CST-1368DR,8609,12041,15461,0.040,551
2019-07-20T00:03:27,42.805,6.029,CST-1368DR,8609,12045,15466,0.039,551
2019-07-20T00:06:28,42.805,6.029,CST-1368DR,8609,12042,15463,0.039,551
2019-07-20T00:09:30,42.805,6.029,CST-1368DR,8609,12044,15465,0.039,551
2019-07-20T00:12:32,42.805,6.029,CST-1368DR,8609,12045,15466,0.039,551
2019-07-20T00:15:33,42.805,6.029,CST-1368DR,8609,12043,15464,0.039,550
2019-07-20T00:18:35,42.805,6.029,CST-1368DR,8609,12044,15465,0.039,551
2019-07-20T00:21:37,42.805,6.029,CST-1368DR,8609,12045,15466,0.039,551
2019-07-20T00:24:38,42.805,6.029,CST-1368DR,8609,12044,15465,0.039,551
2019-07-20T00:27:40,42.805,6.029,CST-1368DR,8609,12043,15464,0.039,551
2019-07-20T00:30:41,42.805,6.029,CST-1368DR,8609,12044,15465,0.039,551
2019-07-20T00:33:43,42.805,6.029,CST-1368DR,8609,12042,15462,0.040,551
2019-07-20T00:36:45,42.805,6.029,CST-1368DR,8609,12044,15465,0.039,551
2019-07-20T00:39:46,42.805,6.029,CST-1368DR,8609,12045,15467,0.038,551
2019-07-20T00:42:48,42.805,6.029,CST-1368DR,8609,12044,15465,0.039,551
2019-07-20T00:45:50,42.805,6.029,CST-1368DR,8609,12045,15466,0.039,551
2019-07-20T00:48:51,42.805,6.029,CST-1368DR,8609,12042,15463,0.039,551
2019-07-20T00:51:53,42.805,6.029,CST-1368DR,8609,12045,15466,0.039,551
2019-07-20T00:54:54,42.805,6.029,CST-1368DR,8609,12044,15465,0.039,550
2019-07-20T00:57:56,42.805,6.029,CST-1368DR,8608,12040,15462,0.040,551
2019-07-20T01:00:58,42.805,6.029,CST-1368DR,8609,12043,15464,0.039,551
2019-07-20T01:03:59,42.805,6.029,CST-1368DR,8609,12043,15463,0.039,551
2019-07-20T01:07:01,42.805,6.029,CST-1368DR,8608,12040,15462,0.040,551
2019-07-20T01:10:03,42.805,6.029,CST-1368DR,8609,12044,15465,0.039,551
2019-07-20T01:13:04,42.805,6.029,CST-1368DR,8608,12045,15467,0.038,550
2019-07-20T01:16:06,42.805,6.029,CST-1368DR,8609,12044,15465,0.039,551
2019-07-20T01:19:08,42.805,6.029,CST-1368DR,8609,12043,15464,0.039,551
2019-07-20T01:22:09,42.805,6.029,CST-1368DR,8609,12044,15465,0.039,551
2019-07-20T01:25:11,42.805,6.029,CST-1368DR,8608,12040,15461,0.040,551
2019-07-20T01:28:13,42.805,6.029,CST-1368DR,8608,12044,15467,0.038,551
2019-07-20T01:31:14,42.805,6.029,CST-1368DR,8608,12044,15467,0.038,551
2019-07-20T01:34:16,42.805,6.029,CST-1368DR,8608,12040,15462,0.040,551
2019-07-20T01:37:17,42.805,6.029,CST-1368DR,8608,12044,15467,0.038,551
2019-07-20T01:40:19,42.805,6.029,CST-1368DR,8608,12039,15460,0.040,551
2019-07-20T01:43:21,42.805,6.029,CST-1368DR,8608,12043,15465,0.039,551
2019-07-20T01:46:22,42.805,6.029,CST-1368DR,8608,12043,15465,0.039,551
2019-07-20T01:49:24,42.805,6.029,CST-1368DR,8608,12042,15465,0.039,551
2019-07-20T01:52:26,42.805,6.029,CST-1368DR,8608,12042,15464,0.039,551
2019-07-20T01:55:27,42.805,6.029,CST-1368DR,8608,12044,15466,0.039,551
2019-07-20T01:58:29,42.805,6.029,CST-1368DR,8608,12041,15463,0.039,551
2019-07-20T02:01:31,42.805,6.029,CST-1368DR,8608,12043,15465,0.039,551
2019-07-20T02:04:32,42.805,6.029,CST-1368DR,8608,12041,15463,0.039,551
2019-07-20T02:07:34,42.805,6.029,CST-1368DR,8608,12041,15463,0.039,551
2019-07-20T02:10:35,42.805,6.029,CST-1368DR,8608,12038,15459,0.040,551
2019-07-20T02:13:37,42.805,6.029,CST-1368DR,8608,12041,15462,0.040,550
2019-07-20T02:16:39,42.805,6.029,CST-1368DR,8608,12041,15463,0.039,551
2019-07-20T02:19:41,42.805,6.029,CST-1368DR,8608,12042,15464,0.039,551
2019-07-20T02:22:42,42.805,6.029,CST-1368DR,8608,12042,15464,0.039,551
2019-07-20T02:25:44,42.805,6.029,CST-1368DR,8608,12042,15465,0.039,551
2019-07-20T02:28:46,42.805,6.029,CST-1368DR,8608,12042,15464,0.039,551
2019-07-20T02:31:47,42.805,6.029,CST-1368DR,8608,12042,15464,0.039,551
2019-07-20T02:34:49,42.805,6.029,CST-1368DR,8608,12041,15463,0.039,550
2019-07-20T02:37:51,42.805,6.029,CST-1368DR,8608,12042,15464,0.039,550
2019-07-20T02:40:52,42.805,6.029,CST-1368DR,8607,12041,15464,0.039,550
2019-07-20T02:43:54,42.805,6.029,CST-1368DR,8608,12042,15464,0.039,551
2019-07-20T02:46:56,42.805,6.029,CST-1368DR,8608,12042,15464,0.039,551
2019-07-20T02:49:58,42.805,6.029,CST-1368DR,8608,12043,15466,0.039,551
2019-07-20T02:52:59,42.805,6.029,CST-1368DR,8607,12043,15467,0.038,551
2019-07-20T02:56:01,42.805,6.029,CST-1368DR,8607,12039,15461,0.040,551
2019-07-20T02:59:03,42.805,6.029,CST-1368DR,8607,12032,15452,0.042,550
2019-07-20T03:02:04,42.805,6.029,CST-1368DR,8607,12042,15466,0.039,550
2019-07-20T03:05:06,42.805,6.029,CST-1368DR,8607,12042,15465,0.039,551
2019-07-20T03:08:07,42.805,6.029,CST-1368DR,8607,12040,15463,0.039,550
2019-07-20T03:11:09,42.805,6.029,CST-1368DR,8607,12043,15467,0.038,551
2019-07-20T03:14:11,42.805,6.029,CST-1368DR,8607,12039,15461,0.040,551
2019-07-20T03:17:12,42.805,6.029,CST-1368DR,8607,12041,15465,0.039,551
2019-07-20T03:20:14,42.805,6.029,CST-1368DR,8607,12042,15466,0.039,551
2019-07-20T03:23:16,42.805,6.029,CST-1368DR,8607,12041,15464,0.039,551
2019-07-20T03:26:17,42.805,6.029,CST-1368DR,8607,12041,15464,0.039,551
2019-07-20T03:29:19,42.805,6.029,CST-1368DR,8607,12040,15464,0.039,551
2019-07-20T03:32:21,42.805,6.029,CST-1368DR,8607,12042,15466,0.039,551
2019-07-20T03:35:22,42.805,6.029,CST-1368DR,8607,12041,15465,0.039,551
2019-07-20T03:38:24,42.805,6.029,CST-1368DR,8607,12040,15463,0.039,551
2019-07-20T03:41:25,42.805,6.029,CST-1368DR,8607,12040,15464,0.039,551
2019-07-20T03:44:27,42.805,6.029,CST-1368DR,8607,12038,15460,0.040,551
2019-07-20T03:47:29,42.805,6.029,CST-1368DR,8607,12040,15463,0.039,551
2019-07-20T03:50:30,42.805,6.029,CST-1368DR,8607,12041,15465,0.039,551
2019-07-20T03:53:32,42.805,6.029,CST-1368DR,8607,12038,15460,0.040,551
2019-07-20T03:56:34,42.805,6.029,CST-1368DR,8607,12040,15464,0.039,551
2019-07-20T03:59:35,42.805,6.029,CST-1368DR,8607,12042,15466,0.039,551
2019-07-20T04:02:37,42.805,6.029,CST-1368DR,8607,12041,15464,0.039,551
2019-07-20T04:05:38,42.805,6.029,CST-1368DR,8607,12042,15465,0.039,551
2019-07-20T04:08:40,42.805,6.029,CST-1368DR,8607,12041,15464,0.039,551
2019-07-20T04:11:42,42.805,6.029,CST-1368DR,8607,12040,15464,0.039,551
2019-07-20T04:14:43,42.805,6.029,CST-1368DR,8607,12039,15462,0.040,551
2019-07-20T04:17:45,42.805,6.029,CST-1368DR,8607,12040,15463,0.039,551
2019-07-20T04:20:47,42.805,6.029,CST-1368DR,8607,12039,15461,0.040,551
2019-07-20T04:23:48,42.805,6.029,CST-1368DR,8607,12041,15464,0.039,551
2019-07-20T04:26:50,42.805,6.029,CST-1368DR,8607,12037,15460,0.040,551
2019-07-20T04:29:51,42.805,6.029,CST-1368DR,8607,12039,15462,0.040,551
2019-07-20T04:32:53,42.805,6.029,CST-1368DR,8607,12039,15462,0.040,551
2019-07-20T04:35:55,42.805,6.029,CST-1368DR,8606,12029,15451,0.042,551
2019-07-20T04:38:56,42.805,6.029,CST-1368DR,8607,12036,15458,0.041,551
2019-07-20T04:41:58,42.805,6.029,CST-1368DR,8607,12041,15464,0.039,550
2019-07-20T04:45:00,42.805,6.029,CST-1368DR,8606,12041,15466,0.039,551
2019-07-20T04:48:01,42.805,6.029,CST-1368DR,8606,12041,15466,0.039,551
2019-07-20T04:51:03,42.805,6.029,CST-1368DR,8606,12037,15461,0.040,551
2019-07-20T04:54:04,42.805,6.029,CST-1368DR,8606,12041,15466,0.039,551
2019-07-20T04:57:06,42.805,6.029,CST-1368DR,8606,12041,15466,0.039,551
2019-07-20T05:00:08,42.805,6.029,CST-1368DR,8606,12041,15466,0.039,551
2019-07-20T05:03:09,42.805,6.029,CST-1368DR,8606,12040,15465,0.039,551
2019-07-20T05:06:11,42.805,6.029,CST-1368DR,8606,12040,15464,0.039,550
2019-07-20T05:09:13,42.805,6.029,CST-1368DR,8606,12041,15466,0.039,550
2019-07-20T05:12:14,42.805,6.029,CST-1368DR,8606,12036,15460,0.040,550
2019-07-20T05:15:16,42.805,6.029,CST-1368DR,8606,12038,15463,0.039,551
2019-07-20T05:18:18,42.805,6.029,CST-1368DR,8606,12040,15465,0.039,551
2019-07-20T05:21:19,42.805,6.029,CST-1368DR,8606,12040,15465,0.039,551
2019-07-20T05:24:21,42.805,6.029,CST-1368DR,8606,12039,15463,0.039,551
2019-07-20T05:27:23,42.805,6.029,CST-1368DR,8606,12034,15457,0.041,551
2019-07-20T05:30:24,42.805,6.029,CST-1368DR,8606,12040,15464,0.039,551
2019-07-20T05:33:26,42.805,6.029,CST-1368DR,8606,12040,15464,0.039,551
2019-07-20T05:36:28,42.805,6.029,CST-1368DR,8606,12039,15463,0.039,551
2019-07-20T05:39:29,42.805,6.029,CST-1368DR,8606,12041,15466,0.039,551
2019-07-20T05:42:31,42.805,6.029,CST-1368DR,8606,12041,15466,0.039,551
2019-07-20T05:45:33,42.805,6.029,CST-1368DR,8606,12039,15464,0.039,551
2019-07-20T05:48:34,42.805,6.029,CST-1368DR,8606,12040,15465,0.039,551
2019-07-20T05:51:36,42.805,6.029,CST-1368DR,8606,12028,15450,0.043,551
2019-07-20T05:54:38,42.805,6.029,CST-1368DR,8606,12039,15464,0.039,551
2019-07-20T05:57:39,42.805,6.029,CST-1368DR,8606,12034,15458,0.041,551
2019-07-20T06:00:41,42.805,6.029,CST-1368DR,8606,12042,15467,0.038,551
2019-07-20T06:03:43,42.805,6.029,CST-1368DR,8606,12041,15466,0.039,551
2019-07-20T06:06:44,42.805,6.029,CST-1368DR,8606,12041,15466,0.039,551
2019-07-20T06:09:46,42.805,6.029,CST-1368DR,8606,12041,15466,0.039,551
2019-07-20T06:12:47,42.805,6.029,CST-1368DR,8606,12039,15464,0.039,551
2019-07-20T06:15:49,42.805,6.029,CST-1368DR,8606,12039,15463,0.039,551
2019-07-20T06:18:51,42.805,6.029,CST-1368DR,8606,12040,15464,0.039,551
2019-07-20T06:21:52,42.805,6.029,CST-1368DR,8606,12040,15465,0.039,551
2019-07-20T06:24:54,42.805,6.029,CST-1368DR,8606,12041,15466,0.039,551
2019-07-20T06:27:56,42.805,6.029,CST-1368DR,8606,12039,15464,0.039,551
2019-07-20T06:30:57,42.805,6.029,CST-1368DR,8606,12041,15466,0.039,551
2019-07-20T06:33:59,42.805,6.029,CST-1368DR,8606,12040,15465,0.039,551
2019-07-20T06:37:01,42.805,6.029,CST-1368DR,8606,12035,15459,0.040,551
2019-07-20T06:40:02,42.805,6.029,CST-1368DR,8606,12039,15464,0.039,551
2019-07-20T06:43:04,42.805,6.029,CST-1368DR,8605,12039,15465,0.039,551
2019-07-20T06:46:05,42.805,6.029,CST-1368DR,8605,12038,15464,0.039,551
2019-07-20T06:49:07,42.805,6.029,CST-1368DR,8605,12037,15463,0.039,551
2019-07-20T06:52:09,42.805,6.029,CST-1368DR,8605,12041,15467,0.038,551
2019-07-20T06:55:11,42.805,6.029,CST-1368DR,8605,12039,15466,0.039,551
2019-07-20T06:58:12,42.805,6.029,CST-1368DR,8605,12020,15441,0.045,551
2019-07-20T07:01:14,42.805,6.029,CST-1368DR,8605,12036,15461,0.040,551
2019-07-20T07:04:15,42.805,6.029,CST-1368DR,8605,12039,15466,0.039,550
2019-07-20T07:07:17,42.805,6.029,CST-1368DR,8605,12039,15466,0.039,551
2019-07-20T07:10:19,42.805,6.029,CST-1368DR,8605,12039,15465,0.039,551
2019-07-20T07:13:20,42.805,6.029,CST-1368DR,8605,12037,15463,0.039,551
2019-07-20T07:16:22,42.805,6.029,CST-1368DR,8605,12040,15467,0.038,551
2019-07-20T07:19:24,42.805,6.029,CST-1368DR,8605,12039,15465,0.039,551
2019-07-20T07:22:25,42.805,6.029,CST-1368DR,8605,12037,15463,0.039,551
2019-07-20T07:25:27,42.805,6.029,CST-1368DR,8605,12039,15466,0.039,550
2019-07-20T07:28:29,42.805,6.029,CST-1368DR,8605,12037,15463,0.039,551
2019-07-20T07:31:30,42.805,6.029,CST-1368DR,8605,12038,15464,0.039,551
2019-07-20T07:34:32,42.805,6.029,CST-1368DR,8605,12036,15461,0.040,550
2019-07-20T07:37:34,42.805,6.029,CST-1368DR,8605,12038,15463,0.039,551
2019-07-20T07:40:35,42.805,6.029,CST-1368DR,8605,12036,15462,0.040,551
2019-07-20T07:43:37,42.805,6.029,CST-1368DR,8605,12035,15460,0.040,550
2019-07-20T07:46:39,42.805,6.029,CST-1368DR,8605,12037,15462,0.040,551
2019-07-20T07:49:40,42.805,6.029,CST-1368DR,8605,12036,15461,0.040,551
2019-07-20T07:52:42,42.805,6.029,CST-1368DR,8605,12037,15463,0.039,551
2019-07-20T07:55:44,42.805,6.029,CST-1368DR,8605,12034,15459,0.040,550
2019-07-20T07:58:45,42.805,6.029,CST-1368DR,8605,12036,15461,0.040,551
2019-07-20T08:01:47,42.805,6.029,CST-1368DR,8604,12036,15463,0.039,551
2019-07-20T08:04:49,42.805,6.029,CST-1368DR,8604,12035,15462,0.040,551
2019-07-20T08:07:50,42.805,6.029,CST-1368DR,8604,12036,15463,0.039,551
2019-07-20T08:10:52,42.805,6.029,CST-1368DR,8605,12037,15463,0.039,551
2019-07-20T08:13:53,42.805,6.029,CST-1368DR,8604,12034,15461,0.040,551
2019-07-20T08:16:55,42.805,6.029,CST-1368DR,8604,12037,15464,0.039,551
2019-07-20T08:19:57,42.805,6.029,CST-1368DR,8604,12037,15464,0.039,551
2019-07-20T08:22:58,42.805,6.029,CST-1368DR,8605,12037,15462,0.040,551
2019-07-20T08:26:00,42.805,6.029,CST-1368DR,8604,12036,15463,0.039,551
2019-07-20T08:29:02,42.805,6.029,CST-1368DR,8604,12036,15463,0.039,551
2019-07-20T08:32:03,42.805,6.029,CST-1368DR,8604,12035,15462,0.040,551
2019-07-20T08:35:05,42.805,6.029,CST-1368DR,8604,12038,15465,0.039,551
2019-07-20T08:38:07,42.805,6.029,CST-1368DR,8604,12032,15458,0.041,550
2019-07-20T08:41:08,42.805,6.029,CST-1368DR,8604,12036,15463,0.039,551
2019-07-20T08:44:10,42.805,6.029,CST-1368DR,8604,12037,15464,0.039,551
2019-07-20T08:47:12,42.805,6.029,CST-1368DR,8604,12036,15463,0.039,551
2019-07-20T08:50:13,42.805,6.029,CST-1368DR,8604,12030,15455,0.041,551
2019-07-20T08:53:15,42.805,6.029,CST-1368DR,8604,12034,15460,0.040,551
2019-07-20T08:56:16,42.805,6.029,CST-1368DR,8604,12036,15463,0.039,551
2019-07-20T08:59:18,42.805,6.029,CST-1368DR,8604,12036,15463,0.039,551
2019-07-20T09:02:20,42.805,6.029,CST-1368DR,8604,12038,15465,0.039,551
2019-07-20T09:05:22,42.805,6.029,CST-1368DR,8604,12034,15460,0.040,551
2019-07-20T09:08:23,42.805,6.029,CST-1368DR,8604,12035,15462,0.040,551
2019-07-20T09:11:25,42.805,6.029,CST-1368DR,8604,12035,15462,0.040,551
2019-07-20T09:14:27,42.805,6.029,CST-1368DR,8604,12036,15463,0.039,551
2019-07-20T09:17:28,42.805,6.029,CST-1368DR,8604,12035,15462,0.040,551
2019-07-20T09:20:30,42.805,6.029,CST-1368DR,8604,12036,15463,0.039,551
2019-07-20T09:23:31,42.805,6.029,CST-1368DR,8604,12037,15464,0.039,551
2019-07-20T09:26:33,42.805,6.029,CST-1368DR,8604,12036,15463,0.039,551
2019-07-20T09:29:35,42.805,6.029,CST-1368DR,8604,12036,15463,0.039,551
2019-07-20T09:32:36,42.805,6.029,CST-1368DR,8604,12036,15463,0.039,551
2019-07-20T09:35:38,42.805,6.029,CST-1368DR,8604,12035,15462,0.040,551
2019-07-20T09:38:40,42.805,6.029,CST-1368DR,8604,12033,15460,0.040,550
2019-07-20T09:41:41,42.805,6.029,CST-1368DR,8604,12035,15462,0.040,551
2019-07-20T09:44:43,42.805,6.029,CST-1368DR,8604,12036,15463,0.039,551
2019-07-20T09:47:45,42.805,6.029,CST-1368DR,8604,12034,15461,0.040,551
2019-07-20T09:50:46,42.805,6.029,CST-1368DR,8604,12037,15464,0.039,551
2019-07-20T09:53:48,42.805,6.029,CST-1368DR,8603,12033,15461,0.040,551
2019-07-20T09:56:49,42.805,6.029,CST-1368DR,8603,12032,15459,0.040,551
2019-07-20T09:59:51,42.805,6.029,CST-1368DR,8603,12035,15464,0.039,551
2019-07-20T10:02:53,42.805,6.029,CST-1368DR,8603,12034,15462,0.040,551
2019-07-20T10:05:55,42.805,6.029,CST-1368DR,8603,12031,15458,0.041,551
2019-07-20T10:08:56,42.805,6.029,CST-1368DR,8603,12029,15455,0.041,551
2019-07-20T10:11:58,42.805,6.029,CST-1368DR,8603,12034,15462,0.040,551
2019-07-20T10:14:59,42.805,6.029,CST-1368DR,8603,12023,15448,0.043,551
2019-07-20T10:18:01,42.805,6.029,CST-1368DR,8603,12034,15462,0.040,551
2019-07-20T10:21:03,42.805,6.029,CST-1368DR,8603,12034,15462,0.040,551
2019-07-20T10:24:05,42.805,6.029,CST-1368DR,8603,12036,15465,0.039,551
2019-07-20T10:27:06,42.805,6.029,CST-1368DR,8603,12035,15464,0.039,551
2019-07-20T10:30:08,42.805,6.029,CST-1368DR,8603,12036,15465,0.039,551
2019-07-20T10:33:09,42.805,6.029,CST-1368DR,8603,12036,15465,0.039,551
2019-07-20T10:36:11,42.805,6.029,CST-1368DR,8603,12035,15463,0.039,551
2019-07-20T10:39:13,42.805,6.029,CST-1368DR,8603,12036,15464,0.039,551
2019-07-20T10:42:14,42.805,6.029,CST-1368DR,8603,12036,15465,0.039,551
2019-07-20T10:45:16,42.805,6.029,CST-1368DR,8603,12036,15464,0.039,551
2019-07-20T10:48:18,42.805,6.029,CST-1368DR,8603,12036,15464,0.039,551
2019-07-20T10:51:19,42.805,6.029,CST-1368DR,8603,12035,15464,0.039,551
2019-07-20T10:54:21,42.805,6.029,CST-1368DR,8603,12034,15462,0.040,551
2019-07-20T10:57:23,42.805,6.029,CST-1368DR,8603,12036,15464,0.039,550
2019-07-20T11:00:24,42.805,6.029,CST-1368DR,8603,12034,15463,0.039,551
2019-07-20T11:03:26,42.805,6.029,CST-1368DR,8603,12035,15464,0.039,551
2019-07-20T11:06:28,42.805,6.029,CST-1368DR,8603,12034,15462,0.040,551
2019-07-20T11:09:29,42.805,6.029,CST-1368DR,8603,12037,15466,0.039,551
2019-07-20T11:12:31,42.805,6.029,CST-1368DR,8603,12036,15465,0.039,551
2019-07-20T11:15:32,42.805,6.029,CST-1368DR,8603,12036,15464,0.039,551
2019-07-20T11:18:34,42.805,6.029,CST-1368DR,8603,12036,15465,0.039,551
2019-07-20T11:21:36,42.805,6.029,CST-1368DR,8603,12035,15464,0.039,551
2019-07-20T11:24:37,42.805,6.029,CST-1368DR,8602,12036,15466,0.039,551
2019-07-20T11:27:39,42.805,6.029,CST-1368DR,8603,12035,15463,0.039,551
2019-07-20T11:30:41,42.805,6.029,CST-1368DR,8602,12033,15462,0.040,551
2019-07-20T11:33:42,42.805,6.029,CST-1368DR,8602,12034,15464,0.039,551
2019-07-20T11:36:44,42.805,6.029,CST-1368DR,8602,12010,15433,0.047,551
2019-07-20T11:39:45,42.805,6.029,CST-1368DR,8602,12032,15462,0.040,551
2019-07-20T11:42:47,42.805,6.029,CST-1368DR,8602,12034,15464,0.039,551
2019-07-20T11:45:49,42.805,6.029,CST-1368DR,8602,12033,15462,0.040,551
2019-07-20T11:48:50,42.805,6.029,CST-1368DR,8602,12034,15464,0.039,551
2019-07-20T11:51:52,42.805,6.029,CST-1368DR,8602,12035,15465,0.039,551
2019-07-20T11:54:54,42.805,6.029,CST-1368DR,8602,12035,15465,0.039,551
2019-07-20T11:57:55,42.805,6.029,CST-1368DR,8602,12033,15463,0.039,550
2019-07-20T12:00:57,42.805,6.029,CST-1368DR,8602,12034,15464,0.039,551
2019-07-20T12:03:59,42.805,6.029,CST-1368DR,8602,12034,15464,0.039,551
2019-07-20T12:07:00,42.805,6.029,CST-1368DR,8602,12035,15465,0.039,551
2019-07-20T12:10:02,42.805,6.029,CST-1368DR,8602,12026,15453,0.042,551
2019-07-20T12:13:04,42.805,6.029,CST-1368DR,8602,12035,15465,0.039,551
2019-07-20T12:16:05,42.805,6.029,CST-1368DR,8602,12035,15465,0.039,551
2019-07-20T12:19:07,42.805,6.029,CST-1368DR,8602,12034,15463,0.039,551
2019-07-20T12:22:08,42.805,6.029,CST-1368DR,8602,12034,15464,0.039,551
2019-07-20T12:25:10,42.805,6.029,CST-1368DR,8602,12033,15463,0.039,551
2019-07-20T12:28:12,42.805,6.029,CST-1368DR,8602,12032,15462,0.040,551
2019-07-20T12:31:13,42.805,6.029,CST-1368DR,8602,12031,15460,0.040,551
2019-07-20T12:34:15,42.805,6.029,CST-1368DR,8602,12031,15460,0.040,550
2019-07-20T12:37:17,42.805,6.029,CST-1368DR,8602,12030,15458,0.041,551
2019-07-20T12:40:19,42.805,6.029,CST-1368DR,8602,12033,15462,0.040,551
2019-07-20T12:43:20,42.805,6.029,CST-1368DR,8602,12032,15462,0.040,551
2019-07-20T12:46:22,42.805,6.029,CST-1368DR,8602,12026,15453,0.042,551
2019-07-20T12:49:24,42.805,6.029,CST-1368DR,8602,12030,15459,0.040,551
2019-07-20T12:52:25,42.805,6.029,CST-1368DR,8602,12032,15462,0.040,551
2019-07-20T12:55:27,42.805,6.029,CST-1368DR,8602,12034,15463,0.039,551
2019-07-20T12:58:28,42.805,6.029,CST-1368DR,8602,12033,15462,0.040,551
2019-07-20T13:01:30,42.805,6.029,CST-1368DR,8602,12034,15463,0.039,551
2019-07-20T13:04:32,42.805,6.029,CST-1368DR,8602,12035,15465,0.039,551
2019-07-20T13:07:33,42.805,6.029,CST-1368DR,8602,12032,15461,0.040,551
2019-07-20T13:10:35,42.805,6.029,CST-1368DR,8602,12034,15463,0.039,550
2019-07-20T13:13:36,42.805,6.029,CST-1368DR,8602,12034,15463,0.039,551
2019-07-20T13:16:38,42.805,6.029,CST-1368DR,8602,12028,15456,0.041,550
2019-07-20T13:19:40,42.805,6.029,CST-1368DR,8602,12034,15464,0.039,551
2019-07-20T13:22:41,42.805,6.029,CST-1368DR,8602,12031,15460,0.040,550
2019-07-20T13:25:43,42.805,6.029,CST-1368DR,8602,12033,15463,0.039,551
2019-07-20T13:28:45,42.805,6.029,CST-1368DR,8602,12032,15462,0.040,551
2019-07-20T13:31:46,42.805,6.029,CST-1368DR,8602,12033,15463,0.039,551
2019-07-20T13:34:48,42.805,6.029,CST-1368DR,8602,12034,15464,0.039,551
2019-07-20T13:37:50,42.805,6.029,CST-1368DR,8601,12031,15461,0.040,550
2019-07-20T13:40:51,42.805,6.029,CST-1368DR,8601,12034,15465,0.039,551
2019-07-20T13:43:53,42.805,6.029,CST-1368DR,8601,12033,15465,0.039,550
2019-07-20T13:46:55,42.805,6.029,CST-1368DR,8601,12030,15460,0.040,550
2019-07-20T13:49:56,42.805,6.029,CST-1368DR,8601,12030,15461,0.040,551
2019-07-20T13:52:58,42.805,6.029,CST-1368DR,8601,12034,15465,0.039,551
2019-07-20T13:55:59,42.805,6.029,CST-1368DR,8601,12033,15465,0.039,551
2019-07-20T13:59:01,42.805,6.029,CST-1368DR,8601,12033,15464,0.039,551
2019-07-20T14:02:03,42.805,6.029,CST-1368DR,8601,12033,15464,0.039,550
2019-07-20T14:05:04,42.805,6.029,CST-1368DR,8601,12033,15464,0.039,551
2019-07-20T14:08:06,42.805,6.029,CST-1368DR,8601,12033,15464,0.039,551
2019-07-20T14:11:08,42.805,6.029,CST-1368DR,8601,12032,15463,0.039,551
2019-07-20T14:14:09,42.805,6.029,CST-1368DR,8601,12032,15463,0.039,551
2019-07-20T14:17:11,42.805,6.029,CST-1368DR,8601,12033,15464,0.039,551
2019-07-20T14:20:13,42.805,6.029,CST-1368DR,8601,12033,15464,0.039,551
2019-07-20T14:23:15,42.805,6.029,CST-1368DR,8601,12032,15463,0.039,551
2019-07-20T14:26:16,42.805,6.029,CST-1368DR,8601,12034,15465,0.039,551
2019-07-20T14:29:18,42.805,6.029,CST-1368DR,8601,12031,15461,0.040,551
2019-07-20T14:32:20,42.805,6.029,CST-1368DR,8601,12034,15465,0.039,551
2019-07-20T14:35:21,42.805,6.029,CST-1368DR,8601,12033,15464,0.039,551
2019-07-20T14:38:23,42.805,6.029,CST-1368DR,8601,12032,15463,0.039,551
2019-07-20T14:41:24,42.805,6.029,CST-1368DR,8601,12033,15464,0.039,551
2019-07-20T14:44:26,42.805,6.029,CST-1368DR,8601,12032,15463,0.039,551
2019-07-20T14:47:28,42.805,6.029,CST-1368DR,8601,12033,15464,0.039,551
2019-07-20T14:50:29,42.805,6.029,CST-1368DR,8601,12031,15461,0.040,551
2019-07-20T14:53:31,42.805,6.029,CST-1368DR,8601,12033,15464,0.039,551
2019-07-20T14:56:33,42.805,6.029,CST-1368DR,8601,12032,15463,0.039,551
2019-07-20T14:59:34,42.805,6.029,CST-1368DR,8601,12034,15465,0.039,550
2019-07-20T15:02:36,42.805,6.029,CST-1368DR,8601,12030,15461,0.040,550
2019-07-20T15:05:38,42.805,6.029,CST-1368DR,8601,12027,15457,0.041,551
2019-07-20T15:08:39,42.805,6.029,CST-1368DR,8601,12034,15465,0.039,550
2019-07-20T15:11:41,42.805,6.029,CST-1368DR,8601,12034,15465,0.039,551
2019-07-20T15:14:43,42.805,6.029,CST-1368DR,8601,12030,15461,0.040,551
2019-07-20T15:17:44,42.805,6.029,CST-1368DR,8601,12032,15463,0.039,551
2019-07-20T15:20:46,42.805,6.029,CST-1368DR,8600,12026,15457,0.041,551
2019-07-20T15:23:48,42.805,6.029,CST-1368DR,8600,12031,15463,0.039,550
2019-07-20T15:26:49,42.805,6.029,CST-1368DR,8600,12030,15462,0.040,551
2019-07-20T15:29:51,42.805,6.029,CST-1368DR,8600,12031,15463,0.039,551
2019-07-20T15:32:52,42.805,6.029,CST-1368DR,8600,12032,15464,0.039,551
2019-07-20T15:35:54,42.805,6.029,CST-1368DR,8600,12027,15458,0.041,551
2019-07-20T15:38:56,42.805,6.029,CST-1368DR,8600,12030,15462,0.040,551
2019-07-20T15:41:57,42.805,6.029,CST-1368DR,8600,12029,15461,0.040,551
2019-07-20T15:44:59,42.805,6.029,CST-1368DR,8600,12032,15465,0.039,551
2019-07-20T15:48:01,42.805,6.029,CST-1368DR,8600,12031,15463,0.039,551
2019-07-20T15:51:02,42.805,6.029,CST-1368DR,8600,12032,15464,0.039,551
2019-07-20T15:54:04,42.805,6.029,CST-1368DR,8600,12022,15451,0.042,551
2019-07-20T15:57:06,42.805,6.029,CST-1368DR,8600,12031,15463,0.039,550
2019-07-20T16:00:07,42.805,6.029,CST-1368DR,8600,12032,15465,0.039,550
2019-07-20T16:03:09,42.805,6.029,CST-1368DR,8600,12032,15465,0.039,551
2019-07-20T16:06:11,42.805,6.029,CST-1368DR,8600,12029,15461,0.040,551
2019-07-20T16:09:12,42.805,6.029,CST-1368DR,8600,12032,15464,0.039,551
2019-07-20T16:12:14,42.805,6.029,CST-1368DR,8600,12032,15464,0.039,551
2019-07-20T16:15:15,42.805,6.029,CST-1368DR,8600,12032,15465,0.039,551
2019-07-20T16:18:17,42.805,6.029,CST-1368DR,8600,12032,15464,0.039,551
2019-07-20T16:21:19,42.805,6.029,CST-1368DR,8600,12031,15463,0.039,551
2019-07-20T16:24:20,42.805,6.029,CST-1368DR,8600,12033,15466,0.039,550
2019-07-20T16:27:22,42.805,6.029,CST-1368DR,8600,12031,15463,0.039,551
2019-07-20T16:30:24,42.805,6.029,CST-1368DR,8600,12030,15462,0.040,551
2019-07-20T16:33:25,42.805,6.029,CST-1368DR,8600,12031,15463,0.039,550
2019-07-20T16:36:27,42.805,6.029,CST-1368DR,8600,12030,15462,0.040,551